Torna al catalogo

STARLINK-30343

AttivoComunicazioniVLEO
NORAD 57753·PAYLOAD·🇺🇸 United States

Lanciato Sep 1, 2023 da Cape Canaveral Space Force Station

Loading…

Prossimi Passaggi (prossime 24 ore)

TLE

AggiornatoSource: CelesTrak SupGP

Epoca: Sep 15, 2026, 03:11 UTC

1 57753C 23131X   26258.13312500 -.00036310  00000+0 -13150-2 0  2589
2 57753  43.0030 189.9484 0001140 275.5174  54.2184 15.27601568    15

Traccia STARLINK-30343 in tempo reale con AllMySat

Download on the App Store